Temp
66 66 65 65 65 65 65 65 64 64 64 64 64 65 65 65 67 67 60 65 69 74 72 66 67 66 63 59 60 55 43 39 41 44 46 52 49 54 55 51 50 52 50 50 52
65 65 64 65 65 64 64 65 64 64 64 64 64 65 65 64 65 62 70 75 76 75 66 63 62 63 57 57 56 49 41 43 48 49 48 51 50 50 49 49 48 48 51 51 50
65 64 64 63 64 64 64 65 64 64 64 64 64 65 65 63 62 60 74 75 75 73 66 64 62 61 55 55 53 49 44 50 51 53 54 51 48 52 48 45 46 45 46 48 47
64 64 63 63 63 64 64 64 64 64 64 64 65 65 64 64 50 64 74 75 74 71 67 64 61 54 50 50 52 47 52 54 53 53 53 50 52 48 48 46 51 49 49 47 45
64 63 62 62 62 63 64 64 65 65 64 65 65 65 65 59 56 71 72 72 70 68 62 60 57 52 48 48 51 47 49 53 53 52 51 53 49 49 48 50 50 51 49 45 44
64 63 62 61 61 62 63 64 65 65 64 65 65 63 63 53 66 69 68 69 67 64 61 60 56 56 52 50 48 49 50 50 52 52 52 49 47 49 48 51 50 49 46 45 44
63 62 61 61 61 62 63 64 65 64 65 65 66 67 61 57 65 67 68 64 66 63 59 59 58 56 52 48 53 51 45 47 50 50 49 50 44 44 49 51 49 48 46 45 44
62 62 61 61 61 61 62 63 63 64 64 65 66 63 55 68 65 68 67 65 66 65 62 62 61 58 54 52 52 46 44 38 47 49 49 47 38 47 47 48 47 46 45 44 43
61 61 61 61 61 60 61 62 63 64 65 66 63 60 53 69 65 65 63 62 63 63 62 69 60 52 51 43 39 40 34 36 43 50 47 44 39 46 47 47 45 45 43 42 41
61 60 60 60 60 60 61 62 64 64 66 69 68 57 62 59 63 65 64 64 59 59 59 57 49 44 42 40 32 33 33 36 37 45 44 41 41 45 46 45 44 42 41 41 41
60 59 59 60 60 60 62 61 60 59 60 54 55 56 60 64 64 63 63 61 59 56 47 49 42 37 39 41 42 41 36 36 40 47 44 38 40 45 46 43 41 39 39 39 40
60 59 59 60 60 61 59 53 50 54 52 60 60 60 62 60 57 61 64 55 54 46 48 45 38 45 49 47 43 41 36 36 42 47 42 39 41 40 41 40 42 39 38 39 39
59 59 59 59 60 58 54 52 57 55 52 57 59 58 59 61 54 57 59 53 50 46 44 40 44 50 48 44 42 39 35 36 38 41 41 39 36 38 41 40 42 41 41 41 39
59 59 59 59 60 56 52 58 58 55 45 52 56 59 61 58 53 61 59 53 51 44 44 43 49 47 44 43 41 36 43 42 40 35 30 38 29 35 37 38 39 40 39 38 39
59 59 58 60 56 54 56 58 56 54 32 53 56 64 61 55 54 57 58 55 46 46 45 43 43 43 42 43 43 42 44 40 38 33 30 32 29 35 36 38 41 39 38 38 38
58 58 57 58 55 55 57 55 54 44 31 48 54 53 52 53 55 57 54 56 52 47 46 44 48 45 44 47 45 47 41 39 35 32 26 31 30 32 36 40 40 38 38 39 38
58 58 56 60 54 57 55 52 44 36 50 47 46 50 47 47 51 50 47 44 40 38 36 42 43 45 47 42 44 42 33 27 26 25 27 32 30 35 39 41 41 42 41 39 38
57 57 58 60 56 55 52 50 37 44 43 50 48 49 44 47 46 49 44 40 43 41 35 32 33 42 46 41 37 36 34 27 24 23 26 32 27 36 40 42 42 44 43 40 38
56 54 55 56 57 53 51 39 42 44 48 46 47 42 43 46 44 45 39 40 40 41 35 33 36 44 45 44 42 37 32 37 30 26 23 27 34 39 39 41 41 41 40 39 39
50 52 54 58 55 52 47 43 43 48 49 47 40 42 38 41 42 41 39 43 43 44 42 37 31 41 43 43 41 38 41 31 29 25 22 26 28 31 36 39 41 41 40 40 40
52 52 57 56 54 50 43 41 46 50 50 46 43 41 40 40 39 38 40 44 47 45 43 40 36 38 40 37 36 36 34 34 33 29 24 20 27 40 41 43 42 43 42 41 40
50 49 56 54 50 41 43 46 49 48 49 48 46 45 42 42 39 40 41 45 49 48 39 40 36 29 36 39 40 38 36 35 30 30 32 27 28 44 42 43 42 40 40 39 40
46 47 55 55 45 42 44 47 49 48 47 47 46 48 45 43 39 42 43 48 49 46 42 42 34 27 32 34 37 36 39 42 40 37 31 28 30 41 38 38 40 38 39 40 41
47 45 50 48 45 45 43 45 45 47 48 49 47 46 43 41 44 41 42 47 47 47 50 48 35 34 30 34 37 34 39 41 41 30 32 33 36 43 46 45 38 37 39 39 38
46 45 44 43 46 43 45 46 45 44 46 47 43 45 44 39 40 40 42 43 45 48 44 42 31 32 37 40 39 39 38 39 34 36 31 36 34 41 39 36 35 38 38 37 36
45 44 44 43 45 42 43 44 45 46 45 43 43 46 44 41 44 42 43 40 42 38 40 39 32 31 31 37 37 34 38 39 37 37 37 37 36 37 35 34 36 34 34 34 33
47 47 47 45 42 41 43 46 46 48 49 50 47 44 42 46 47 46 46 45 46 41 38 38 36 32 32 36 35 30 36 38 34 35 36 30 34 34 34 37 35 31 31 30 31
MSLP
1020.36 1019.99 1019.61 1019.23 1018.87 1018.56 1018.24 1017.95 1017.86 1017.76 1017.63 1017.54 1017.53 1017.35 1017.10 1016.90 1016.55 1016.38 1016.72 1017.22 1016.65 1016.03 1015.71 1015.43 1014.93 1014.71 1014.70 1015.29 1015.78 1016.52 1018.20 1019.49 1019.44 1019.44 1019.35 1019.20 1019.34 1019.59 1020.00 1020.58 1021.19 1021.72 1022.35 1023.17 1023.31
1020.39 1019.99 1019.69 1019.30 1018.86 1018.46 1018.19 1017.95 1017.83 1017.67 1017.58 1017.53 1017.45 1017.33 1017.14 1017.01 1016.82 1016.88 1017.12 1016.62 1016.20 1015.88 1015.79 1015.63 1015.56 1015.43 1015.68 1016.08 1016.60 1017.44 1019.05 1019.26 1019.35 1019.21 1019.19 1019.31 1019.55 1019.83 1020.49 1021.15 1021.91 1022.54 1023.07 1023.40 1023.47
1020.40 1020.03 1019.72 1019.40 1018.88 1018.45 1018.17 1017.95 1017.84 1017.75 1017.64 1017.58 1017.40 1017.26 1017.12 1017.00 1017.06 1017.46 1016.86 1016.42 1016.04 1015.70 1015.69 1015.69 1015.78 1015.85 1016.43 1016.66 1017.40 1017.95 1018.92 1019.31 1019.33 1019.15 1019.19 1019.43 1019.76 1019.98 1020.57 1021.43 1021.98 1022.63 1023.36 1023.71 1023.85
1020.61 1020.22 1019.81 1019.41 1018.92 1018.54 1018.25 1018.09 1017.98 1017.89 1017.84 1017.70 1017.46 1017.26 1017.06 1016.95 1017.83 1017.42 1016.95 1016.55 1016.11 1015.77 1015.53 1015.80 1015.95 1016.39 1017.25 1017.74 1018.06 1018.52 1019.00 1019.06 1019.19 1019.23 1019.30 1019.63 1019.85 1020.30 1020.81 1021.42 1021.75 1022.46 1023.13 1023.70 1024.10
1020.77 1020.43 1020.03 1019.62 1019.15 1018.77 1018.46 1018.28 1018.15 1018.07 1017.97 1017.80 1017.57 1017.31 1017.08 1017.53 1017.98 1017.33 1017.14 1016.79 1016.34 1016.18 1016.46 1016.51 1016.88 1017.19 1017.67 1017.95 1018.27 1018.64 1019.11 1019.23 1019.37 1019.58 1019.70 1019.83 1020.19 1020.53 1021.06 1021.62 1022.21 1022.76 1023.35 1023.92 1024.40
1020.93 1020.53 1020.27 1019.89 1019.44 1019.05 1018.72 1018.48 1018.30 1018.18 1018.07 1017.88 1017.60 1017.28 1017.23 1017.98 1017.72 1017.60 1017.44 1017.05 1016.91 1016.83 1017.06 1016.99 1017.43 1017.42 1017.84 1018.20 1018.52 1018.89 1019.15 1019.35 1019.55 1019.57 1019.57 1020.11 1020.38 1020.76 1021.05 1021.50 1022.13 1022.73 1023.47 1024.08 1024.53
1021.12 1020.69 1020.32 1019.97 1019.52 1019.12 1018.81 1018.54 1018.35 1018.22 1018.05 1017.81 1017.51 1017.33 1017.82 1018.21 1017.75 1017.71 1017.52 1017.28 1017.20 1017.17 1017.30 1017.36 1017.42 1017.56 1018.06 1018.50 1018.68 1018.97 1019.47 1019.56 1019.49 1019.79 1019.82 1020.10 1020.53 1020.74 1020.84 1021.38 1022.11 1022.82 1023.53 1024.05 1024.55
1021.32 1020.75 1020.26 1019.86 1019.49 1019.16 1018.84 1018.52 1018.31 1018.17 1018.01 1017.82 1017.65 1017.56 1018.01 1017.71 1017.73 1017.69 1017.55 1017.36 1017.28 1017.24 1017.29 1017.34 1017.45 1017.82 1018.39 1018.77 1019.18 1019.58 1020.02 1020.31 1019.75 1019.85 1020.03 1020.47 1020.56 1020.33 1020.97 1021.59 1022.20 1022.82 1023.46 1024.10 1024.62
1021.39 1020.76 1020.17 1019.78 1019.39 1019.04 1018.77 1018.46 1018.21 1018.06 1017.97 1017.78 1017.73 1017.74 1018.20 1017.72 1017.85 1017.85 1017.79 1017.78 1017.54 1017.40 1017.36 1017.44 1017.74 1018.91 1019.22 1019.87 1020.48 1020.89 1021.02 1020.95 1020.34 1020.18 1020.47 1020.91 1020.75 1020.67 1021.15 1021.82 1022.42 1023.04 1023.71 1024.24 1024.65
1021.51 1020.92 1020.36 1019.79 1019.31 1018.87 1018.49 1018.35 1018.07 1017.85 1017.82 1017.81 1018.00 1018.51 1018.31 1018.71 1018.34 1018.09 1017.71 1017.69 1017.74 1017.71 1017.81 1018.09 1019.17 1020.07 1020.63 1020.79 1021.65 1021.71 1021.63 1021.19 1020.90 1020.61 1020.79 1021.11 1020.64 1020.72 1021.07 1021.72 1022.26 1023.02 1023.76 1024.24 1024.50
1021.58 1020.99 1020.43 1019.81 1019.23 1018.82 1018.39 1018.37 1019.03 1019.03 1018.95 1019.39 1019.29 1019.11 1018.98 1018.77 1018.45 1018.14 1017.99 1017.91 1017.99 1018.30 1018.98 1019.37 1020.25 1021.19 1021.30 1021.31 1021.31 1021.39 1021.53 1021.45 1020.68 1020.43 1020.78 1020.89 1020.83 1020.49 1020.69 1021.26 1022.31 1023.22 1023.75 1024.27 1024.67
1021.60 1021.03 1020.48 1019.96 1019.39 1019.04 1019.13 1020.26 1021.06 1021.46 1020.62 1019.65 1019.37 1019.22 1019.09 1019.10 1018.90 1018.49 1018.11 1018.55 1018.85 1019.47 1019.57 1020.09 1020.78 1020.89 1020.93 1021.07 1021.21 1021.23 1021.39 1021.36 1021.01 1020.72 1021.12 1020.76 1020.45 1020.59 1020.88 1021.25 1021.87 1022.82 1023.66 1024.27 1024.61
1021.71 1021.01 1020.43 1019.96 1019.50 1019.59 1020.54 1021.23 1021.25 1021.15 1020.80 1020.05 1019.59 1019.34 1019.26 1019.28 1019.36 1019.14 1019.07 1019.18 1019.52 1019.96 1020.30 1020.42 1020.61 1020.57 1020.79 1021.00 1021.17 1021.19 1021.47 1021.65 1021.88 1021.25 1020.94 1020.99 1020.79 1020.52 1020.83 1021.32 1021.81 1022.55 1023.17 1023.76 1024.23
1021.77 1021.15 1020.53 1019.89 1019.96 1020.56 1021.18 1021.34 1021.23 1021.17 1020.98 1020.50 1019.66 1019.29 1019.25 1019.27 1019.45 1019.19 1019.29 1019.68 1019.86 1020.39 1020.55 1020.75 1020.58 1020.63 1020.70 1020.91 1021.31 1021.36 1021.22 1021.64 1021.90 1022.12 1022.04 1021.60 1021.61 1020.81 1020.82 1021.35 1021.86 1022.36 1022.93 1023.46 1023.81
1021.95 1021.38 1020.85 1020.09 1020.60 1021.03 1021.47 1021.25 1021.23 1021.23 1021.35 1020.63 1019.66 1019.10 1019.23 1019.58 1019.82 1019.44 1019.41 1019.47 1020.24 1020.63 1020.95 1020.88 1020.78 1020.80 1020.92 1021.02 1021.28 1021.29 1021.36 1021.74 1021.93 1022.36 1022.59 1022.19 1022.29 1020.50 1020.63 1020.64 1020.89 1021.48 1022.30 1022.96 1023.15
1021.98 1021.44 1021.10 1020.71 1021.06 1021.45 1021.35 1021.33 1021.47 1021.63 1021.18 1020.65 1020.10 1019.94 1019.85 1019.95 1019.89 1019.74 1019.87 1020.01 1020.45 1020.83 1020.96 1021.05 1021.01 1021.09 1021.05 1021.02 1021.28 1021.43 1021.42 1021.98 1022.46 1022.86 1023.14 1022.36 1022.34 1020.69 1020.22 1019.87 1020.02 1020.81 1021.75 1022.48 1023.13
1021.88 1021.43 1021.19 1021.20 1021.52 1021.38 1021.44 1021.66 1022.01 1021.90 1021.46 1021.30 1020.79 1020.57 1020.63 1020.61 1020.34 1020.48 1020.95 1021.40 1021.91 1021.96 1022.19 1021.66 1021.29 1021.17 1021.19 1021.42 1021.48 1021.90 1022.34 1022.91 1023.38 1023.43 1023.11 1022.46 1022.35 1020.29 1019.72 1019.55 1019.78 1020.22 1021.03 1021.83 1022.62
1021.61 1021.17 1021.08 1021.04 1021.20 1021.41 1021.71 1021.87 1022.02 1021.91 1021.54 1021.18 1021.05 1020.95 1021.04 1021.01 1020.97 1021.10 1021.62 1022.34 1022.51 1022.83 1023.25 1023.31 1021.81 1021.64 1021.59 1021.87 1022.27 1022.70 1023.16 1024.23 1024.69 1024.65 1023.94 1022.72 1021.84 1019.73 1019.44 1019.40 1019.56 1020.10 1020.55 1021.53 1022.37
1021.43 1021.27 1021.26 1021.16 1021.27 1021.50 1021.84 1022.26 1021.91 1021.81 1021.58 1021.53 1021.39 1021.41 1021.38 1021.41 1021.69 1021.68 1022.06 1022.66 1022.95 1023.11 1023.61 1023.73 1022.72 1021.91 1021.80 1021.99 1022.43 1022.69 1023.27 1023.77 1024.51 1024.83 1024.74 1022.69 1021.06 1019.48 1019.46 1019.59 1019.80 1020.13 1020.70 1021.18 1021.62
1022.23 1021.91 1021.39 1021.11 1021.38 1021.69 1022.10 1022.32 1022.19 1021.89 1021.84 1021.91 1021.87 1021.81 1021.91 1021.91 1022.00 1022.15 1022.26 1022.50 1022.83 1023.04 1023.19 1023.73 1023.55 1022.28 1022.11 1022.25 1022.50 1022.70 1023.37 1024.01 1024.65 1025.04 1024.56 1022.76 1021.39 1019.73 1019.31 1019.23 1019.46 1019.94 1020.28 1020.67 1021.39
1022.39 1022.18 1021.27 1021.17 1021.44 1021.69 1022.35 1022.33 1022.12 1021.95 1021.96 1022.16 1022.09 1022.16 1022.23 1022.30 1022.33 1022.36 1022.30 1022.36 1022.54 1022.91 1023.23 1023.68 1024.21 1023.15 1022.68 1022.60 1022.71 1023.08 1023.20 1023.79 1024.38 1024.71 1024.69 1023.56 1021.08 1018.99 1018.87 1018.84 1019.21 1019.58 1020.09 1020.50 1021.03
1023.09 1022.68 1021.46 1021.24 1021.92 1022.50 1022.75 1022.32 1022.14 1022.11 1022.08 1022.09 1022.10 1022.14 1022.27 1022.37 1022.47 1022.39 1022.20 1022.01 1022.19 1022.67 1023.37 1023.81 1024.47 1024.46 1023.38 1022.68 1022.51 1022.50 1022.79 1023.20 1024.03 1024.02 1023.85 1023.44 1019.84 1018.34 1018.51 1018.76 1019.06 1019.84 1020.31 1020.55 1020.72
1024.04 1022.90 1021.49 1021.35 1022.26 1022.80 1022.62 1022.37 1022.15 1022.17 1022.17 1022.28 1022.26 1022.23 1022.30 1022.53 1022.64 1022.22 1022.01 1021.76 1022.14 1022.72 1023.12 1023.75 1024.41 1024.56 1023.48 1023.28 1022.70 1022.38 1022.22 1022.48 1022.91 1023.17 1022.69 1022.88 1019.39 1018.59 1018.64 1019.18 1019.64 1020.22 1020.65 1020.87 1020.99
1024.48 1023.70 1022.28 1022.19 1022.44 1022.38 1022.51 1022.27 1022.19 1022.03 1022.02 1022.07 1022.16 1022.27 1022.55 1022.64 1022.61 1022.52 1022.24 1022.00 1022.28 1022.62 1022.93 1023.56 1024.18 1024.08 1023.64 1022.83 1022.71 1022.68 1022.08 1021.92 1022.27 1022.47 1021.65 1020.23 1018.84 1019.11 1019.07 1019.54 1020.11 1020.68 1021.17 1021.57 1021.64
1024.63 1024.13 1023.79 1023.44 1022.89 1022.51 1022.22 1022.05 1022.08 1022.06 1022.11 1022.11 1022.40 1022.35 1022.48 1022.76 1022.59 1022.55 1022.28 1022.23 1022.45 1022.60 1023.34 1024.00 1024.25 1024.07 1023.22 1022.71 1022.35 1021.81 1021.29 1021.27 1021.39 1020.92 1021.47 1018.01 1019.45 1018.29 1019.39 1020.05 1020.80 1021.52 1021.80 1021.86 1022.14
1024.55 1024.52 1024.16 1023.70 1023.11 1022.83 1022.51 1022.06 1021.85 1021.68 1021.94 1022.14 1022.34 1021.80 1022.23 1022.35 1021.64 1021.87 1022.13 1022.50 1022.60 1023.13 1023.54 1023.89 1023.65 1023.67 1023.05 1022.55 1021.89 1020.91 1020.36 1020.05 1020.30 1020.14 1020.09 1019.75 1019.05 1019.46 1020.10 1020.78 1021.55 1022.18 1022.51 1022.72 1022.90
1024.31 1024.21 1024.16 1023.65 1023.33 1023.08 1022.45 1021.59 1021.32 1021.50 1021.10 1021.05 1021.37 1021.82 1021.83 1021.33 1021.41 1021.54 1021.80 1022.14 1022.26 1022.65 1023.47 1023.85 1023.89 1023.85 1022.17 1021.76 1021.50 1019.84 1017.81 1018.14 1018.80 1019.10 1019.28 1020.04 1020.23 1020.62 1021.17 1021.53 1022.17 1022.85 1023.40 1023.82 1023.92
Wind_Speed
17 17 17 14 14 12 8 6 5 5 4 4 4 4 6 8 6 5 10 6 8 16 13 8 5 7 3 4 4 3 6 2 1 2 3 1 2 2 3 5 3 3 3 4 4
18 18 17 16 15 13 9 7 5 5 4 4 3 4 5 7 1 9 4 11 12 11 6 8 7 8 5 5 5 6 4 2 1 3 3 2 3 2 4 2 3 4 5 6 7
20 19 19 18 16 13 9 7 6 4 4 4 4 5 6 4 5 4 10 13 15 11 3 2 2 0 5 5 5 2 4 4 1 2 5 4 2 2 7 4 3 4 3 4 6
20 20 20 19 17 13 9 8 7 6 6 5 6 7 8 1 2 5 12 12 11 8 4 6 7 4 5 5 4 5 3 3 4 1 1 3 3 1 3 2 7 8 6 4 6
20 19 19 19 17 14 10 8 7 7 6 6 7 9 2 7 1 6 11 10 6 6 7 4 7 3 3 3 3 4 2 2 1 1 1 2 3 4 4 6 8 8 7 6 5
19 20 19 16 15 13 10 8 7 6 6 7 8 8 5 6 4 7 8 6 5 5 6 7 3 2 4 3 4 0 1 3 4 3 2 1 2 0 2 7 9 7 6 5 5
20 19 17 15 15 14 10 8 7 7 7 7 10 3 9 2 3 7 6 2 3 2 3 2 2 3 2 2 2 2 1 2 4 3 2 2 4 6 5 8 9 7 6 6 5
21 19 17 16 15 13 10 7 7 7 8 6 7 3 3 2 2 4 6 2 5 2 1 2 3 4 4 0 4 4 4 5 2 5 2 2 7 4 6 9 8 8 6 6 3
22 22 20 17 15 12 10 8 7 7 7 7 3 4 1 2 4 4 2 4 6 2 2 2 4 4 7 4 5 7 2 3 8 7 3 3 7 3 7 6 7 6 6 6 5
19 20 19 17 14 12 11 3 6 6 2 1 1 4 5 5 5 5 4 3 2 5 4 6 6 5 6 6 1 4 4 4 5 1 2 5 14 7 9 8 8 7 6 6 5
19 19 18 17 15 13 5 4 6 6 10 3 2 2 3 8 3 4 4 4 3 7 4 5 9 2 3 1 2 4 3 4 4 3 6 3 9 13 7 7 7 7 7 5 4
18 18 18 15 14 10 5 6 2 2 4 3 2 2 1 0 5 7 7 5 6 4 4 7 2 3 4 2 2 3 2 4 7 3 1 6 11 3 3 2 6 8 7 6 4
19 20 19 16 9 6 5 3 1 1 4 3 2 2 3 3 1 7 5 2 5 5 4 4 2 2 1 3 6 4 2 3 6 7 2 7 5 2 2 2 1 3 5 5 7
19 21 19 19 6 1 3 4 2 1 5 6 4 4 3 1 2 1 2 2 5 1 1 1 2 3 2 1 2 4 3 4 6 4 3 4 5 4 2 4 5 7 7 7 7
18 19 18 10 2 4 1 1 1 3 4 2 5 1 5 4 2 7 1 3 1 3 3 4 3 3 2 2 2 8 4 5 2 2 3 3 3 7 2 4 6 9 9 9 9
18 17 15 4 3 1 2 3 3 7 3 4 3 6 4 4 6 6 5 6 0 1 2 1 1 1 2 4 2 6 4 4 4 3 3 2 4 7 3 4 1 1 7 9 8
19 18 5 1 1 1 2 3 6 5 2 4 3 3 2 4 5 4 4 7 5 6 8 6 1 1 1 4 4 8 6 4 6 5 5 3 1 9 3 1 1 4 7 9 7
22 10 1 1 1 3 2 5 2 1 2 1 2 4 1 3 2 6 2 4 4 4 3 4 8 2 3 1 2 3 4 4 4 3 6 3 6 6 4 5 4 4 6 5 7
15 3 2 2 3 3 5 5 6 5 2 1 1 1 3 2 1 5 2 3 1 1 3 4 6 2 1 1 2 2 3 3 1 1 1 4 8 4 4 6 5 6 3 8 9
2 3 2 2 4 3 6 4 3 1 1 1 2 1 2 3 3 5 1 3 3 2 3 2 5 2 1 1 2 1 2 1 2 3 6 6 7 7 4 3 4 6 9 9 7
3 4 1 4 3 5 3 4 3 2 2 2 3 1 1 2 1 2 3 2 5 4 3 4 4 5 1 3 3 1 1 1 2 4 4 5 8 6 6 5 4 4 5 5 7
2 3 1 1 4 1 2 2 1 3 1 2 2 3 4 3 3 3 5 5 6 6 2 2 4 5 10 2 3 3 4 5 3 3 4 3 11 5 6 4 2 4 4 4 5
2 3 2 2 2 1 2 1 3 4 4 4 4 4 3 4 3 5 4 2 7 7 7 5 2 5 6 4 3 4 5 5 3 3 10 5 8 2 5 5 4 5 4 5 7
2 3 5 5 0 6 4 4 3 2 3 3 3 2 2 3 4 4 4 4 6 6 5 5 5 8 8 8 4 9 10 8 10 6 8 19 23 16 15 12 3 2 5 6 7
1 3 2 3 3 2 3 5 4 4 3 5 2 7 7 4 3 6 4 3 4 5 5 5 7 6 12 12 11 17 20 16 14 18 15 26 15 19 5 5 2 4 6 7 7
1 1 3 3 2 1 1 5 7 3 8 5 6 5 8 7 10 7 5 4 7 2 7 3 6 2 5 12 16 21 21 21 19 19 18 22 27 2 4 2 3 3 6 6 7
1 1 3 3 1 3 5 6 5 5 6 5 9 4 6 15 6 5 6 5 6 9 9 6 4 2 9 2 6 14 17 17 5 6 8 11 2 3 4 5 4 5 5 6 7
Wind_Direction
12 12 11 7 1 359 355 347 351 348 335 328 347 343 335 342 337 41 39 271 298 308 325 302 9 343 48 45 43 88 62 74 116 165 180 51 120 29 68 93 43 56 81 70 9
10 9 8 3 357 356 358 0 360 351 351 346 350 344 334 338 55 47 269 318 323 322 355 4 352 353 25 16 26 68 85 169 267 169 158 102 117 165 106 121 86 79 70 43 29
8 6 5 4 360 358 1 10 16 24 14 12 356 340 327 321 61 323 316 342 340 345 217 275 271 351 48 29 5 46 131 166 240 137 148 148 146 152 127 234 181 177 138 43 32
6 4 3 4 2 5 8 22 31 37 30 17 358 340 328 343 78 284 334 341 346 349 35 30 27 46 71 51 350 89 48 150 197 42 111 175 136 210 176 154 149 134 128 93 45
6 4 3 4 0 2 2 18 28 29 23 5 347 335 37 42 31 297 338 340 2 10 41 35 47 46 72 83 63 69 134 78 139 102 105 136 240 237 197 160 120 123 104 96 74
1 1 3 1 356 359 352 3 10 12 2 353 343 322 70 68 280 326 337 342 4 33 21 33 58 321 86 59 82 83 166 173 206 207 248 210 299 285 188 160 144 138 123 107 85
1 360 360 358 353 351 347 338 344 348 345 342 347 41 65 187 329 325 349 333 354 32 39 26 327 101 80 61 3 105 38 292 222 194 253 112 280 236 177 172 167 156 142 124 96
357 353 352 349 345 343 337 325 321 328 327 333 338 64 93 285 305 350 340 335 357 5 63 304 353 79 56 162 31 33 47 3 313 155 226 100 267 268 177 168 190 159 155 138 126
353 351 348 345 344 339 329 314 302 312 305 319 24 88 8 327 9 314 350 329 310 323 313 343 45 70 24 61 25 10 309 301 324 197 110 181 273 254 186 194 199 175 164 156 153
345 346 343 340 341 337 328 280 305 331 353 303 51 39 10 316 304 335 301 337 343 332 28 50 48 64 22 50 48 300 327 307 269 297 222 246 263 258 213 207 207 176 176 172 172
348 345 342 339 338 342 9 20 19 353 39 80 282 161 331 298 276 329 348 352 14 49 30 18 60 31 294 321 221 245 231 263 265 233 337 251 276 287 247 202 179 188 189 191 184
345 344 341 338 335 352 59 75 82 158 70 359 334 330 258 303 359 326 6 59 44 32 356 28 38 266 292 348 235 304 301 295 295 273 289 299 287 344 31 219 180 187 195 198 182
342 343 342 335 324 38 74 78 326 357 95 328 311 326 306 25 20 309 33 340 51 34 16 130 245 295 20 16 7 318 240 276 255 315 233 325 324 318 11 42 131 206 184 190 199
341 343 341 330 63 149 53 320 10 352 78 312 341 344 347 81 354 294 27 78 24 42 290 194 339 355 342 62 83 310 210 279 294 37 294 31 289 303 240 254 232 225 209 209 204
337 341 342 13 149 54 291 335 51 54 46 320 315 258 313 65 292 344 5 35 76 305 79 274 349 3 348 278 140 245 330 287 244 146 37 333 68 267 329 273 255 229 219 223 210
337 337 338 5 48 30 15 59 58 46 270 339 346 355 16 11 337 320 23 32 30 351 340 281 332 130 259 297 233 306 349 55 48 87 20 251 111 282 224 221 267 29 215 217 213
334 331 345 332 329 162 88 55 39 101 341 331 321 2 313 321 330 40 45 13 36 18 5 333 299 323 15 336 18 16 23 351 1 7 230 256 10 243 251 245 249 271 243 218 199
330 326 2 177 92 99 60 55 101 171 233 269 260 324 346 358 312 344 70 20 27 55 37 21 332 15 358 92 295 338 111 129 291 285 286 322 236 254 215 222 251 275 271 203 213
326 355 358 261 129 88 79 67 192 205 194 292 335 55 313 358 343 22 43 175 212 55 68 17 281 287 48 46 98 329 55 173 199 294 348 256 285 280 214 261 253 255 212 228 225
15 354 272 134 113 67 78 202 204 224 158 142 194 188 312 302 6 27 220 182 196 174 142 180 296 240 248 73 23 163 171 3 31 309 290 288 279 244 219 237 226 256 243 247 240
30 23 275 111 81 49 141 208 178 167 182 189 204 234 238 283 267 270 246 205 191 190 149 157 156 284 12 196 193 11 293 185 138 158 235 298 262 218 200 185 181 280 337 313 266
23 348 303 122 49 39 119 185 134 187 200 212 164 189 204 216 244 249 228 217 180 156 193 185 166 263 245 285 241 210 209 150 138 247 231 188 265 285 197 108 74 68 45 355 325
7 262 317 82 153 236 250 229 217 167 212 190 225 207 198 220 250 212 234 184 169 158 176 182 230 311 333 3 290 218 196 194 222 184 223 242 256 121 107 117 96 85 353 333 327
6 337 321 47 21 141 177 223 226 227 230 193 202 145 167 245 235 275 244 222 200 205 174 148 207 190 222 231 196 256 247 216 224 234 259 234 267 268 267 299 98 332 328 329 329
88 257 195 292 304 209 167 183 189 227 219 180 230 214 182 213 228 226 234 256 195 202 173 170 234 231 249 264 265 266 267 252 231 241 238 274 257 263 272 168 221 326 328 342 340
176 34 355 274 294 243 211 227 210 218 156 234 214 214 196 208 199 213 197 198 220 127 167 204 261 227 263 250 255 264 264 258 248 249 250 257 269 34 113 56 323 343 349 348 337
311 326 118 263 233 123 224 226 240 168 225 195 204 182 207 235 233 237 221 216 228 175 191 184 208 171 273 194 304 275 249 239 200 219 209 224 242 71 31 1 349 345 7 352 349